Regional Weather Roundup
Issued by NWS

Home | Current Version | Previous Version | Text Only | Print | Product List | Glossary Off
Versions: 1 2 3 4 5 6 7 8 9 10 11 12 13 14 15 16 17 18 19 20 21 22 23 24 25 26 27 28 29 30 31 32 33 34 35 36 37 38 39 40 41 42 43 44 45 46 47 48 49 50

000
ASUS43 KTOP 160759
RWRKS

WEATHER ROUNDUP FOR KANSAS
NATIONAL WEATHER SERVICE GOODLAND KS
300 AM CDT TUE SEP 16 2014

NOTE:  "FAIR" INDICATES FEW OR NO CLOUDS BELOW 12,000 FEET WITH NO
SIGNIFICANT WEATHER AND/OR OBSTRUCTIONS TO VISIBILITY.

KSZ001>006-013>018-027>032-041>047-160900-
NORTHWEST KANSAS

CITY           SKY/WX    TMP DP  RH WIND       PRES   REMARKS
GOODLAND       CLOUDY    56  53  90 S8        30.26F
HAYS           CLEAR     48  43  81 E6        30.25F
HILL CITY      CLEAR     45  41  86 CALM      30.26F
RUSSELL        CLEAR     49  46  90 E7        30.24F
$$

KSZ061>065-074>080-084>089-160900-
SOUTHWEST KANSAS

CITY           SKY/WX    TMP DP  RH WIND       PRES   REMARKS
DODGE CITY     CLEAR     55  52  89 CALM      30.26S
ELKHART          N/A     58  55  90 S1          N/A
GARDEN CITY    CLOUDY    60  56  86 CALM      30.26S
GREAT BEND     CLEAR     54  48  82 E5        30.25S
LIBERAL        CLOUDY    61  54  77 E3        30.28S
$$

KSZ066>073-081>083-090>101-160900-
SOUTHEAST KANSAS

CITY           SKY/WX    TMP DP  RH WIND       PRES   REMARKS
CHANUTE        CLOUDY    61  53  75 NE10      30.22R
COFFEYVILLE    CLOUDY    65  61  87 NE12      30.18S
HUTCHINSON     CLOUDY    60  51  72 NE6       30.24S
NEWTON         MOCLDY    57  46  67 E8        30.25F
PARSONS        CLOUDY    63  57  81 NE6       30.21R
WICHITA INTL   CLOUDY    62  52  69 NE13      30.21F
WICHITA JABRA  CLOUDY    60  51  72 NE10      30.22F
WINFIELD       CLOUDY    64  57  78 NE10      30.21S
$$

KSZ007>012-019>026-033>040-048>060-102>105-160900-
NORTHEAST KANSAS

CITY           SKY/WX    TMP DP  RH WIND       PRES   REMARKS
CONCORDIA      CLEAR     45  45 100 SE3       30.26F
EMPORIA        PTCLDY    52  50  93 NE6       30.24S
LAWRENCE       CLEAR     49  46  90 NE5       30.26S
MANHATTAN      CLEAR     49  47  93 N3        30.26F
OLATHE IND     CLEAR     48  47  96 N5        30.25S
OLATHE EXE     CLEAR     51  50  96 N6        30.24S
SALINA         CLEAR     54  49  83 E7        30.26F
TOPEKA BILLARD CLEAR     49  48  97 CALM      30.27S
TOPEKA FORBES  CLEAR     51  48  89 N5        30.26R
$$


USA.gov is the U.S. government's official web portal to all federal, state and local government web resources and services.